| time (UTC) | temp F | wind direction | speed MPH | gust MPH | rain 1hr in | rain 24hr in | rain mn in | humidity % | barometer mb |
| 20260503231549 | 80 | 117 | 6.0 | 15.0 | 0.00 | 0.00 | 0.00 | 34 | 1014.4 |
| 20260503230059 | 80 | 123 | 4.0 | 11.0 | 0.00 | 0.00 | 0.00 | 35 | 1014.4 |
| 20260503224551 | 81 | 169 | 7.0 | 15.0 | 0.00 | 0.00 | 0.00 | 33 | 1014.6 |
| 20260503223048 | 81 | 193 | 4.0 | 12.0 | 0.00 | 0.00 | 0.00 | 36 | 1014.5 |
| 20260503221556 | 81 | 171 | 3.0 | 13.0 | 0.00 | 0.00 | 0.00 | 36 | 1014.7 |
| 20260503220052 | 81 | 204 | 5.0 | 13.0 | 0.00 | 0.00 | 0.00 | 34 | 1014.9 |
| 20260503214550 | 81 | 142 | 4.0 | 12.0 | 0.00 | 0.00 | 0.00 | 36 | 1015.1 |
| 20260503213046 | 81 | 79 | 4.0 | 12.0 | 0.00 | 0.00 | 0.00 | 36 | 1015.4 |
| 20260503211551 | 81 | 151 | 4.0 | 14.0 | 0.00 | 0.00 | 0.00 | 37 | 1015.5 |
| 20260503210049 | 82 | 150 | 6.0 | 13.0 | 0.00 | 0.00 | 0.00 | 35 | 1015.8 |
| 20260503204551 | 80 | 213 | 4.0 | 14.0 | 0.00 | 0.00 | 0.00 | 37 | 1015.9 |
| 20260503203102 | 81 | 199 | 5.0 | 10.0 | 0.00 | 0.00 | 0.00 | 36 | 1016.3 |
| 20260503201603 | 81 | 151 | 5.0 | 11.0 | 0.00 | 0.00 | 0.00 | 36 | 1016.6 |
| 20260503200058 | 81 | 109 | 5.0 | 13.0 | 0.00 | 0.00 | 0.00 | 35 | 1016.7 |
| 20260503194602 | 81 | 185 | 5.0 | 11.0 | 0.00 | 0.00 | 0.00 | 40 | 1016.9 |
| 20260503193114 | 80 | 165 | 3.0 | 9.0 | 0.00 | 0.00 | 0.00 | 40 | 1017.2 |
| 20260503191607 | 79 | 217 | 4.0 | 10.0 | 0.00 | 0.00 | 0.00 | 35 | 1017.6 |
| 20260503190059 | 79 | 140 | 4.0 | 10.0 | 0.00 | 0.00 | 0.00 | 40 | 1018.0 |
| 20260503184553 | 79 | 172 | 5.0 | 12.0 | 0.00 | 0.00 | 0.00 | 38 | 1018.1 |
| 20260503183112 | 78 | 215 | 6.0 | 14.0 | 0.00 | 0.00 | 0.00 | 38 | 1018.2 |
| 20260503181620 | 78 | 147 | 5.0 | 12.0 | 0.00 | 0.00 | 0.00 | 42 | 1018.4 |
| 20260503180054 | 78 | 167 | 6.0 | 10.0 | 0.00 | 0.00 | 0.00 | 41 | 1018.7 |
| 20260503174552 | 77 | 219 | 3.0 | 11.0 | 0.00 | 0.00 | 0.00 | 44 | 1018.9 |
| 20260503173056 | 76 | 201 | 3.0 | 14.0 | 0.00 | 0.00 | 0.00 | 45 | 1019.2 |
| 20260503171556 | 76 | 239 | 4.0 | 9.0 | 0.00 | 0.00 | 0.00 | 47 | 1019.4 |
| 20260503100104 | 52 | 0 | 0.0 | 0.0 | 0.00 | 0.00 | 0.00 | 83 | 1018.5 |
| 20260503081556 | 53 | 0 | 0.0 | 0.0 | 0.00 | 0.00 | 0.00 | 83 | 1018.3 |
| 20260503071604 | 54 | 0 | 0.0 | 0.0 | 0.00 | 0.00 | 0.00 | 85 | 1018.7 |
| 20260503070110 | 53 | 0 | 0.0 | 0.0 | 0.00 | 0.00 | 0.00 | 87 | 1018.8 |
| 20260503060113 | 54 | 0 | 0.0 | 0.0 | 0.00 | 0.00 | 0.00 | 85 | 1018.8 |
| 20260503054549 | 55 | 0 | 0.0 | 2.0 | 0.00 | 0.00 | 0.00 | 83 | 1018.7 |
| 20260503053053 | 55 | 0 | 0.0 | 2.0 | 0.00 | 0.00 | 0.00 | 85 | 1018.7 |
| 20260503051551 | 55 | 0 | 0.0 | 0.0 | 0.00 | 0.00 | 0.00 | 86 | 1018.5 |
| 20260503050049 | 55 | 0 | 0.0 | 0.0 | 0.00 | 0.00 | 0.00 | 84 | 1018.5 |
| 20260503044548 | 56 | 0 | 0.0 | 2.0 | 0.00 | 0.00 | 0.00 | 82 | 1018.3 |
| 20260503043048 | 56 | 0 | 0.0 | 1.0 | 0.00 | 0.00 | 0.00 | 84 | 1018.4 |
| 20260503041549 | 56 | 0 | 0.0 | 0.0 | 0.00 | 0.00 | 0.00 | 84 | 1018.4 |
| 20260503040052 | 56 | 0 | 0.0 | 0.0 | 0.00 | 0.00 | 0.00 | 84 | 1018.5 |
| 20260503034601 | 56 | 0 | 0.0 | 1.0 | 0.00 | 0.00 | 0.00 | 84 | 1018.4 |
| 20260503033056 | 57 | 0 | 0.0 | 0.0 | 0.00 | 0.00 | 0.00 | 83 | 1018.4 |
| 20260503031547 | 57 | 0 | 0.0 | 0.0 | 0.00 | 0.00 | 0.00 | 82 | 1018.4 |
| 20260503030059 | 58 | 0 | 0.0 | 0.0 | 0.00 | 0.00 | 0.00 | 80 | 1018.2 |
| 20260503024552 | 58 | 0 | 0.0 | 0.0 | 0.00 | 0.00 | 0.00 | 82 | 1018.1 |
| 20260503023059 | 59 | 0 | 0.0 | 0.0 | 0.00 | 0.00 | 0.00 | 80 | 1018.0 |
| 20260503021555 | 60 | 0 | 0.0 | 0.0 | 0.00 | 0.00 | 0.00 | 75 | 1017.8 |
| 20260503020055 | 62 | 0 | 0.0 | 0.0 | 0.00 | 0.00 | 0.00 | 72 | 1017.8 |
| 20260503014552 | 63 | 0 | 0.0 | 0.0 | 0.00 | 0.00 | 0.00 | 70 | 1017.7 |
| 20260503013058 | 64 | 0 | 0.0 | 0.0 | 0.00 | 0.00 | 0.00 | 65 | 1017.4 |
| 20260503011606 | 66 | 0 | 0.0 | 0.0 | 0.00 | 0.00 | 0.00 | 63 | 1017.4 |
| 20260503010119 | 69 | 0 | 0.0 | 0.0 | 0.00 | 0.00 | 0.00 | 58 | 1017.4 |
| 20260503004555 | 71 | 0 | 0.0 | 0.0 | 0.00 | 0.00 | 0.00 | 52 | 1017.4 |
| 20260503003053 | 73 | 0 | 0.0 | 0.0 | 0.00 | 0.00 | 0.00 | 46 | 1017.4 |
| 20260503001552 | 72 | 0 | 0.0 | 1.0 | 0.00 | 0.00 | 0.00 | 46 | 1017.3 |
| 20260503000106 | 74 | 329 | 0.0 | 4.0 | 0.00 | 0.00 | 0.00 | 45 | 1017.4 |
| 20260502234556 | 74 | 0 | 1.0 | 5.0 | 0.00 | 0.00 | 0.00 | 44 | 1017.3 |
| 20260502233050 | 74 | 0 | 1.0 | 7.0 | 0.00 | 0.00 | 0.00 | 41 | 1017.4 |